Location: Hackberry
(29.5783°N, 96.8797°W)
Time: 14:17:48
(UTC+00:00)

Explorer 11/Cluster Stage 4 - Visible Passes

Search period start: 09 November 2024 00:00
Search period end: 19 November 2024 00:00
Orbit: 464 x 1205 km, 28.8° (Epoch: 08 November)

Date Brightness Start Highest point End Pass type
(mag) Time Alt. Az. Time Alt. Az. Time Alt. Az.
09 Nov 7.7 11:00:11 19° S 11:01:28 22° SSE 11:04:28 10° ESE visible
10 Nov 7.6 10:42:07 25° SSE 10:42:07 25° SSE 10:45:11 10° ESE visible
11 Nov 8.1 10:23:56 22° SE 10:23:56 22° SE 10:25:53 10° E visible
11 Nov 5.9 12:05:42 10° WSW 12:09:50 65° S 12:13:29 10° E visible
12 Nov 8.8 10:05:39 15° ESE 10:05:39 15° ESE 10:06:32 10° E visible
12 Nov 5.9 11:47:12 18° WSW 11:50:17 69° S 11:54:03 10° E visible
13 Nov 5.9 11:28:50 33° WSW 11:30:42 72° S 11:34:36 10° E visible
14 Nov 6.0 11:10:23 60° SW 11:11:06 75° S 11:15:08 10° E visible
15 Nov 6.2 10:51:52 69° ESE 10:51:52 69° ESE 10:55:40 10° E visible
16 Nov 7.3 10:33:19 42° E 10:33:19 42° E 10:36:11 10° E visible
16 Nov 6.0 12:14:51 10° W 12:19:29 70° S 12:23:21 10° ESE visible
17 Nov 8.2 10:14:43 26° E 10:14:43 26° E 10:16:40 10° E visible
17 Nov 6.1 11:56:14 18° W 11:59:48 68° S 12:03:50 10° ESE visible
18 Nov 8.9 09:56:04 17° E 09:56:04 17° E 09:57:07 10° E visible
18 Nov 6.2 11:37:36 28° W 11:40:06 67° S 11:44:18 10° ESE visible
